[[{"header":{"parameterUnit":"m.s-1","parameterCategory":1,"la1":30.2991,"la2":30.254,"lo1":-89.0895,"lo2":-89.0444,"dy":0.0017,"dx":0.0017,"nx":28,"ny":28,"refTime":"2026-02-09T03:00:00:Z","depth":0,"parameterNumber":2,"parameterNumberName":"U-component_of_WINDS"},"data":[0,0,0,0,0,0,0,0,0,0,0,0,0,0,0,0,0,0,0,0,0,0,0,0,0,0,0,0,0,0,0,0,0,0,0,0,0,0,0,0,0,0,0,0,0,0,0,0,0,0,0,0,0,0,0,0,0,0,-0.1143,-0.1142,0,-0.1093,-0.1093,-0.1092,-0.1051,-0.105,-0.105,-0.105,-0.0998,-0.0997,-0.0996,0,0,0,0,0,0,0,0,0,0,0,0,0,-0.1201,-0.12,-0.1143,-0.1142,-0.1142,-0.1093,-0.1093,-0.1092,-0.1051,-0.105,-0.105,-0.1049,-0.0998,-0.0997,-0.0996,0,0,0,0,0,0,0,0,0,0,0,0,0,-0.1166,-0.1199,-0.1143,-0.1115,-0.1112,-0.1094,-0.1093,-0.1092,-0.1051,-0.105,-0.105,-0.1049,-0.0998,-0.0997,-0.0996,-0.1,0,0,-0.0991,-0.099,0,0,0,0,0,0,0,0,-0.1168,-0.1164,-0.112,-0.1117,-0.1114,-0.1078,-0.1094,-0.1061,-0.1051,-0.1074,-0.105,-0.1049,-0.1025,-0.1021,-0.1013,-0.0997,-0.0995,-0.0991,-0.099,-0.0989,-0.0989,0,0,0,0,0,0,0,-0.117,-0.1166,-0.1123,-0.1119,-0.1116,-0.1105,-0.1099,-0.1088,-0.1054,-0.1072,-0.1069,-0.1064,-0.1023,-0.1015,-0.1012,-0.0994,-0.0991,-0.099,-0.0989,-0.0988,-0.0979,-0.098,0,0,0,0,0,0,-0.1177,-0.1168,-0.1125,-0.1122,-0.114,-0.1105,-0.1098,-0.109,-0.1054,-0.1048,-0.1065,-0.1062,-0.1018,-0.1013,-0.101,-0.1012,-0.0989,-0.0988,-0.0987,-0.0979,-0.0979,-0.098,0,0,0,0,0,0,-0.1179,-0.1174,-0.1127,-0.1144,-0.1137,-0.1104,-0.1095,-0.1089,-0.1081,-0.1048,-0.1042,-0.1062,-0.1017,-0.1012,-0.1003,-0.101,-0.0987,-0.0986,-0.0978,-0.0979,-0.098,-0.1017,0,0,0,0,0,0,-0.118,-0.1174,-0.1176,-0.1144,-0.1136,-0.1121,-0.1096,-0.1089,-0.1079,-0.1075,-0.1044,-0.1039,-0.1016,-0.1005,-0.1001,-0.1007,-0.0985,-0.0977,-0.0978,-0.0979,-0.1015,-0.1019,-0.1023,0,0,0,0,0,-0.1183,-0.1188,-0.1176,-0.1171,-0.1138,-0.1121,-0.1117,-0.1091,-0.108,-0.1081,-0.1059,-0.104,-0.101,-0.1004,-0.1,-0.1006,-0.0976,-0.0978,-0.0979,-0.1013,-0.1018,-0.1023,0,0,0,0,0,0,-0.1221,-0.1184,-0.117,-0.1166,-0.1147,-0.1115,-0.1115,-0.1097,-0.1081,-0.1079,-0.1047,-0.104,-0.1035,-0.1019,-0.1014,-0.1008,-0.099,-0.0991,-0.1018,-0.1022,-0.1026,-0.103,-0.0984,0,0,0,0,0,-0.1229,-0.122,-0.1187,-0.1186,-0.1178,-0.1148,-0.114,-0.1122,-0.1101,-0.1093,-0.1071,-0.1052,-0.1038,-0.1029,-0.1015,-0.1013,-0.1005,-0.1014,-0.1018,-0.1022,-0.1022,-0.102,-0.1023,-0.0985,-0.0985,-0.0985,0,0,-0.1246,-0.1224,-0.122,-0.1194,-0.1177,-0.1168,-0.1142,-0.1133,-0.1125,-0.1092,-0.1082,-0.1065,-0.1041,-0.1035,-0.1032,-0.1022,-0.1031,-0.1023,-0.1026,-0.1025,-0.1022,-0.1025,-0.1029,-0.0986,-0.0985,-0.0985,0,0,-0.1271,-0.1254,-0.1251,-0.1235,-0.1211,-0.1191,-0.1191,-0.1161,-0.1148,-0.1138,-0.1113,-0.1103,-0.108,-0.1064,-0.1052,-0.1072,-0.1053,-0.1068,-0.1088,-0.1086,-0.1089,-0.1091,-0.1098,-0.1101,-0.1069,-0.1069,-0.1069,0,-0.1294,-0.1279,-0.1252,-0.1244,-0.1234,-0.1203,-0.12,-0.1186,-0.1158,-0.1151,-0.1141,-0.1111,-0.1093,-0.1083,-0.1088,-0.108,-0.1078,-0.1071,-0.109,-0.1093,-0.1095,-0.1101,-0.1103,-0.1071,-0.107,-0.107,-0.107,0,-0.1309,-0.1299,-0.13,-0.1274,-0.1263,-0.1258,-0.123,-0.1222,-0.1205,-0.1186,-0.1176,-0.1153,-0.1133,-0.1129,-0.1112,-0.1117,-0.1112,-0.1097,-0.1078,-0.1101,-0.1106,-0.1108,-0.1073,-0.1073,-0.1072,-0.1072,0,0,-0.1357,-0.1316,-0.1317,-0.1305,-0.1276,-0.1267,-0.126,-0.1241,-0.1235,-0.1217,-0.121,-0.1191,-0.1177,-0.1164,-0.1145,-0.1144,-0.116,-0.1128,-0.1127,-0.1135,-0.1163,-0.1175,-0.1178,-0.1147,-0.1148,-0.1148,-0.1165,0,-0.1377,-0.1364,-0.1339,-0.1333,-0.1323,-0.1295,-0.1289,-0.127,-0.1252,-0.1241,-0.1221,-0.1208,-0.1191,-0.1183,-0.118,-0.1159,-0.1165,-0.1157,-0.114,-0.114,-0.1147,-0.1181,-0.1193,-0.121,-0.1167,-0.1167,-0.1168,0,-0.1399,-0.1382,-0.1376,-0.1347,-0.1342,-0.1338,-0.1318,-0.1308,-0.1286,-0.1273,-0.1259,-0.1238,-0.1229,-0.1213,-0.12,-0.1195,-0.1187,-0.1175,-0.1175,-0.1172,-0.1155,-0.1178,-0.1215,-0.1218,-0.1171,-0.117,-0.117,0,-0.1434,-0.141,-0.1403,-0.1394,-0.136,-0.1358,-0.1344,-0.1321,-0.1311,-0.1294,-0.1287,-0.1269,-0.1259,-0.1246,-0.122,-0.1211,-0.121,-0.1192,-0.1199,-0.1199,-0.12,-0.12,-0.1235,-0.1195,-0.1195,-0.1195,-0.1195,0,-0.1459,-0.1456,-0.1419,-0.1414,-0.141,-0.1382,-0.1378,-0.1362,-0.1342,-0.1333,-0.1307,-0.13,-0.1267,-0.1256,-0.1236,-0.1228,-0.1223,-0.1212,-0.1207,-0.1215,-0.1216,-0.1209,-0.1207,-0.1195,-0.1195,-0.1195,-0.1195,0,-0.1497,-0.1472,-0.1463,-0.1432,-0.1424,-0.1423,-0.1396,-0.1391,-0.1371,-0.1361,-0.1357,-0.1327,-0.1312,-0.1286,-0.1263,-0.125,-0.1246,-0.1237,-0.1254,-0.125,-0.1258,-0.1258,-0.129,-0.1293,-0.1251,-0.1252,-0.1252,0,-0.1515,-0.1512,-0.1481,-0.1474,-0.1461,-0.1449,-0.1439,-0.1411,-0.1402,-0.1376,-0.1374,-0.1357,-0.1342,-0.132,-0.1296,-0.1279,-0.1269,-0.1281,-0.1266,-0.1274,-0.1269,-0.1269,-0.1268,-0.1285,-0.1285,-0.1286,-0.1286,0,-0.1548,-0.1536,-0.1522,-0.1505,-0.1494,-0.1478,-0.1462,-0.1457,-0.1425,-0.1416,-0.1401,-0.1389,-0.1367,-0.135,-0.133,-0.1314,-0.1295,-0.1291,-0.1292,-0.1299,-0.1309,-0.1304,-0.1263,-0.1291,-0.129,-0.129,-0.129,-0.1289,-0.1576,-0.1572,-0.155,-0.1536,-0.152,-0.1505,-0.1499,-0.1479,-0.1466,-0.1446,-0.143,-0.1416,-0.1394,-0.1364,-0.135,-0.1339,-0.1329,-0.133,-0.1331,-0.1331,-0.1334,-0.1311,-0.1335,-0.1335,-0.1334,-0.1334,-0.1334,0,-0.1608,-0.1592,-0.1579,-0.1557,-0.1546,-0.1529,-0.151,-0.1502,-0.149,-0.1471,-0.1457,-0.144,-0.1424,-0.1399,-0.1381,-0.1376,-0.1367,-0.1372,-0.1372,-0.1369,-0.1343,-0.1345,-0.138,-0.138,-0.138,-0.138,-0.138,-0.138,-0.1623,-0.1615,-0.1601,-0.1585,-0.1569,-0.1556,-0.1546,-0.1532,-0.1517,-0.1499,-0.1486,-0.1469,-0.1448,-0.1428,-0.1412,-0.1405,-0.14,-0.1408,-0.1398,-0.1375,-0.1371,-0.1367,-0.1367,-0.1407,-0.1407,-0.1425,-0.1425,-0.1425]},{"header":{"parameterUnit":"m.s-1","parameterCategory":1,"la1":30.2991,"la2":30.254,"lo1":-89.0895,"lo2":-89.0444,"dy":0.0017,"dx":0.0017,"nx":28,"ny":28,"refTime":"2026-02-09T03:00:00:Z","depth":0,"parameterNumber":3,"parameterNumberName":"V-component_of_WINDS"},"data":[0,0,0,0,0,0,0,0,0,0,0,0,0,0,0,0,0,0,0,0,0,0,0,0,0,0,0,0,0,0,0,0,0,0,0,0,0,0,0,0,0,0,0,0,0,0,0,0,0,0,0,0,0,0,0,0,0,0,1.3735,1.3735,0,1.3722,1.3722,1.3722,1.3721,1.3721,1.3721,1.3721,1.3706,1.3706,1.3705,0,0,0,0,0,0,0,0,0,0,0,0,0,1.3756,1.3756,1.3735,1.3735,1.3734,1.3722,1.3722,1.3722,1.3721,1.3721,1.3721,1.3721,1.3706,1.3706,1.3705,0,0,0,0,0,0,0,0,0,0,0,0,0,1.3746,1.3756,1.3735,1.3733,1.3732,1.3722,1.3722,1.3722,1.3721,1.3721,1.3721,1.3721,1.3707,1.3706,1.3705,1.3696,0,0,1.3703,1.3702,0,0,0,0,0,0,0,0,1.3746,1.3745,1.3733,1.3733,1.3732,1.3723,1.3724,1.3713,1.3721,1.3725,1.3721,1.3721,1.3712,1.371,1.3707,1.3695,1.3694,1.3702,1.3702,1.3702,1.3701,0,0,0,0,0,0,0,1.3747,1.3745,1.373,1.3733,1.3732,1.3732,1.373,1.3722,1.3717,1.3725,1.3725,1.3723,1.3711,1.3708,1.3707,1.3694,1.3702,1.3702,1.3701,1.3701,1.3674,1.3674,0,0,0,0,0,0,1.3748,1.3746,1.373,1.3729,1.374,1.3731,1.373,1.3726,1.3717,1.3716,1.3723,1.3723,1.3709,1.3708,1.3707,1.3695,1.3702,1.3701,1.37,1.3674,1.3674,1.3674,0,0,0,0,0,0,1.3749,1.3747,1.3731,1.3738,1.3736,1.373,1.3726,1.3726,1.3722,1.3716,1.3715,1.3721,1.371,1.3708,1.3699,1.3695,1.3701,1.37,1.3675,1.3674,1.3674,1.3673,0,0,0,0,0,0,1.375,1.3747,1.3744,1.3738,1.3735,1.3723,1.3726,1.3725,1.3721,1.3721,1.3714,1.3713,1.371,1.37,1.3698,1.3694,1.3699,1.3675,1.3674,1.3674,1.3673,1.3672,1.3672,0,0,0,0,0,1.375,1.3744,1.3744,1.3742,1.3731,1.3723,1.3722,1.3719,1.3721,1.3717,1.3714,1.3713,1.3696,1.3699,1.3697,1.3692,1.3675,1.3674,1.3674,1.3673,1.3673,1.3672,0,0,0,0,0,0,1.3749,1.3743,1.3743,1.3734,1.3729,1.3723,1.3719,1.3718,1.3712,1.3712,1.3709,1.3707,1.3698,1.3694,1.3698,1.3683,1.3686,1.3684,1.3686,1.3685,1.3684,1.3685,1.3699,0,0,0,0,0,1.3748,1.3742,1.3737,1.373,1.3728,1.3724,1.372,1.3718,1.3713,1.3711,1.3706,1.37,1.3694,1.3689,1.3683,1.3673,1.3671,1.3669,1.3668,1.3668,1.3667,1.3661,1.366,1.3672,1.3672,1.3672,0,0,1.3745,1.3741,1.3737,1.3729,1.3726,1.372,1.3722,1.3715,1.3711,1.3709,1.3701,1.3697,1.3691,1.3681,1.3677,1.3678,1.3663,1.3667,1.3667,1.3666,1.3661,1.3659,1.3659,1.3672,1.3672,1.3672,0,0,1.3736,1.3733,1.3727,1.3723,1.3718,1.3715,1.3714,1.3708,1.3705,1.3697,1.3696,1.369,1.3679,1.3674,1.3671,1.3661,1.3661,1.3659,1.3656,1.3651,1.365,1.3649,1.3646,1.3644,1.3659,1.3659,1.3659,0,1.3733,1.3725,1.3723,1.3717,1.3714,1.3713,1.3707,1.3703,1.3695,1.3693,1.3694,1.368,1.3676,1.3665,1.3663,1.366,1.3658,1.366,1.365,1.3649,1.3648,1.3645,1.3644,1.3658,1.3658,1.3658,1.3658,0,1.3721,1.3716,1.3711,1.3705,1.3701,1.3694,1.3691,1.3687,1.3686,1.3684,1.3675,1.367,1.3662,1.366,1.3659,1.365,1.365,1.3651,1.3653,1.3647,1.3644,1.3643,1.3658,1.3658,1.3658,1.3658,0,0,1.3711,1.3705,1.3703,1.37,1.3694,1.3689,1.3683,1.3677,1.3673,1.3668,1.3662,1.3653,1.3654,1.365,1.3648,1.3644,1.3637,1.3645,1.3645,1.3643,1.3626,1.3626,1.3624,1.3636,1.3636,1.3636,1.3627,0,1.3702,1.3691,1.369,1.368,1.3675,1.3675,1.3669,1.3665,1.3662,1.3657,1.3654,1.3648,1.3649,1.3647,1.3642,1.3639,1.3633,1.3639,1.3631,1.363,1.3632,1.3623,1.3622,1.3613,1.3626,1.3625,1.3625,0,1.369,1.3685,1.3675,1.3671,1.3668,1.3663,1.3658,1.3653,1.3648,1.3646,1.3642,1.3641,1.3634,1.3637,1.3627,1.3631,1.3628,1.3625,1.3625,1.3624,1.3627,1.3621,1.3611,1.3609,1.3623,1.3624,1.3624,0,1.3683,1.3674,1.3667,1.3665,1.3659,1.3656,1.3653,1.3649,1.3645,1.364,1.3638,1.3631,1.3628,1.3623,1.362,1.3623,1.3611,1.3613,1.3609,1.3609,1.3606,1.3606,1.3594,1.3604,1.3604,1.3604,1.3604,0,1.3672,1.3666,1.3664,1.366,1.3653,1.3651,1.3644,1.3642,1.3638,1.3633,1.3632,1.3627,1.3624,1.3619,1.3617,1.3609,1.3607,1.3605,1.3605,1.3605,1.3605,1.3602,1.3603,1.3604,1.3604,1.3604,1.3604,0,1.3663,1.3662,1.3654,1.365,1.3649,1.3644,1.364,1.3636,1.3634,1.3627,1.3626,1.3622,1.3616,1.3613,1.3604,1.3603,1.3594,1.3594,1.3596,1.3596,1.3591,1.3591,1.3577,1.3575,1.3586,1.3586,1.3586,0,1.3656,1.3652,1.3648,1.3645,1.3642,1.3637,1.3634,1.3632,1.3629,1.3623,1.362,1.3613,1.3608,1.3598,1.3594,1.3588,1.3588,1.3583,1.3587,1.3587,1.3587,1.3588,1.3587,1.3582,1.3582,1.3582,1.3582,0,1.3645,1.3644,1.364,1.3635,1.3632,1.3628,1.3624,1.3621,1.3619,1.3615,1.3609,1.3605,1.3598,1.3591,1.3585,1.3582,1.3581,1.3581,1.358,1.358,1.3581,1.358,1.3594,1.3581,1.3581,1.3581,1.3581,1.3581,1.3636,1.3632,1.3629,1.3624,1.3621,1.3618,1.3614,1.3612,1.3607,1.3601,1.36,1.3594,1.3589,1.3581,1.3578,1.3573,1.3573,1.3571,1.3571,1.357,1.357,1.3583,1.3571,1.3571,1.3571,1.3571,1.3571,0,1.3624,1.3622,1.3618,1.3613,1.3609,1.3611,1.3606,1.3603,1.3598,1.3594,1.3589,1.3582,1.3577,1.3573,1.3567,1.3563,1.3563,1.3562,1.3562,1.3561,1.3569,1.3571,1.3562,1.3562,1.3562,1.3562,1.3562,1.3562,1.3617,1.3611,1.361,1.3602,1.36,1.3595,1.3592,1.3589,1.3586,1.3579,1.3575,1.3573,1.3569,1.3563,1.3557,1.3556,1.3554,1.3553,1.3552,1.3559,1.356,1.3561,1.3563,1.3552,1.3552,1.3544,1.3544,1.3544]}]]